Richlands, VA

11:54 AM EDT on July 20, 2017 (GMT -0400)
Tazewell County

Weather History for KJFZ - March, 2013

Change the Weather History Date:

Sunday, March 17, 2013

  Actual Average (KBLF) Record (KBLF)
Temperature  
Mean Temperature 47 °F -  
Max Temperature 53 °F 50 °F 73 °F (1989)
Min Temperature 40 °F 31 °F 13 °F (1967)
Degree Days  
Heating Degree Days 18    
Moisture  
Dew Point 44 °F    
Average Humidity 94    
Maximum Humidity 100    
Minimum Humidity 80    
Precipitation  
Precipitation 0.07 in - - ()
Sea Level Pressure  
Sea Level Pressure 29.96 in    
Wind  
Wind Speed 5 mph (NE)    
Max Wind Speed 18 mph    
Max Gust Speed 28 mph    
Visibility 6 miles    
Events Fog , Rain    
Averages and records for this station are not official NWS values.
T = Trace of Precipitation, MM = Missing Value Source: NWS Daily Summary

Daily Weather History Graph

Daily Weather History Graph

Search for Another Location

Airport or City:

Trip Planner

Search our weather history database for the weather conditions in past years. The results will help you decide how hot, cold, wet, or windy it might be!

Date:

Astronomy

Mar. 17, 2013 Rise Set
Actual Time 7:34 AM EDT 7:36 PM EDT
Civil Twilight 7:08 AM EDT 8:02 PM EDT
Nautical Twilight 6:38 AM EDT 8:32 PM EDT
Astronomical Twilight 6:08 AM EDT 9:03 PM EDT
Moon 10:54 AM EDT (3/17) 12:35 AM EDT (3/17)
Length of Visible Light 12h 53m
Length of Day
12h 01m
Waxing Crescent, 31% of the Moon is Illuminated
Mar 17
Waxing Crescent
Mar 19
First Quarter
Mar 27
Full
Apr 3
Last Quarter
Apr 10
New

Hourly Weather History & Observations

Time (EDT) Temp. Windchill Dew Point Humidity Pressure Visibility Wind Dir Wind Speed Gust Speed Precip Events Conditions
12:15 AM 53.6 °F - 47.7 °F 80% 29.91 in 10.0 mi NNW 5.8 mph - N/A   Mostly Cloudy
12:35 AM 52.9 °F - 47.3 °F 81% 29.92 in 10.0 mi NW 4.6 mph - N/A   Scattered Clouds
12:55 AM 52.7 °F - 46.8 °F 80% 29.92 in 10.0 mi West 4.6 mph - N/A   Clear
1:15 AM 52.7 °F - 46.8 °F 80% 29.92 in 10.0 mi NW 4.6 mph - N/A   Clear
1:35 AM 51.4 °F - 46.6 °F 83% 29.91 in 10.0 mi Calm Calm - N/A   Clear
1:55 AM 50.5 °F - 46.8 °F 87% 29.92 in 10.0 mi North 4.6 mph - N/A   Mostly Cloudy
2:15 AM 50.5 °F - 46.4 °F 86% 29.92 in 10.0 mi NW 3.5 mph - N/A   Overcast
2:35 AM 50.0 °F - 46.4 °F 87% 29.92 in 10.0 mi NW 4.6 mph - N/A   Overcast
2:55 AM 49.8 °F - 46.4 °F 88% 29.92 in 10.0 mi Calm Calm - N/A   Overcast
3:15 AM 49.3 °F - 46.4 °F 90% 29.93 in 10.0 mi NNW 3.5 mph - N/A   Overcast
3:35 AM 48.9 °F - 46.4 °F 91% 29.93 in 10.0 mi Calm Calm - N/A   Overcast
3:55 AM 48.4 °F - 46.0 °F 92% 29.92 in 10.0 mi Calm Calm - N/A   Overcast
4:15 AM 47.8 °F - 46.2 °F 94% 29.92 in 10.0 mi NNW 3.5 mph - N/A   Overcast
4:35 AM 47.8 °F - 45.7 °F 92% 29.91 in 10.0 mi NNW 3.5 mph - N/A   Overcast
4:55 AM 47.8 °F - 45.5 °F 92% 29.91 in 7.0 mi Calm Calm - N/A Rain Rain
5:15 AM 47.1 °F - 46.0 °F 96% 29.91 in 7.0 mi Calm Calm - N/A   Overcast
5:35 AM 46.8 °F - 45.9 °F 97% 29.93 in 5.0 mi Calm Calm - N/A   Overcast
5:55 AM 46.8 °F - 46.0 °F 97% 29.92 in 5.0 mi Calm Calm - N/A Rain Light Rain
6:15 AM 46.8 °F - 45.7 °F 96% 29.94 in 5.0 mi Calm Calm - N/A Rain Light Rain
6:35 AM 46.4 °F 45.2 °F 45.9 °F 98% 29.93 in 2.0 mi ENE 3.5 mph - N/A Rain Light Rain
6:55 AM 45.9 °F - 45.5 °F 99% 29.95 in 4.0 mi Calm Calm - N/A Rain Rain
7:15 AM 45.7 °F - 45.0 °F 97% 29.96 in 3.0 mi Calm Calm - 0.03 in Rain Rain
7:35 AM 45.5 °F - 45.3 °F 99% 29.97 in 2.0 mi Calm Calm - 0.04 in Rain Rain
7:55 AM 45.5 °F - 45.5 °F 100% 29.98 in 1.2 mi Calm Calm - 0.05 in Rain Heavy Rain
8:15 AM 45.7 °F - 45.7 °F 100% 29.99 in 0.5 mi Calm Calm - N/A Rain Rain
8:35 AM 45.5 °F - 45.5 °F 100% 29.99 in 0.5 mi Calm Calm - 0.01 in Rain Rain
8:55 AM 45.1 °F 43.7 °F 45.1 °F 100% 29.99 in 0.2 mi ENE 3.5 mph - 0.01 in Fog Fog
9:15 AM 45.5 °F 43.2 °F 45.5 °F 100% 30.00 in 0.5 mi ENE 4.6 mph - 0.01 in   Light Drizzle
9:35 AM 45.0 °F 42.6 °F 45.0 °F 100% 30.00 in 0.2 mi NE 4.6 mph - 0.01 in Fog Fog
9:55 AM 44.8 °F - 44.8 °F 100% 30.00 in 0.2 mi Calm Calm - 0.01 in Fog Fog
10:15 AM 44.6 °F 43.1 °F 44.6 °F 100% 30.00 in 0.2 mi ENE 3.5 mph - N/A Fog Fog
10:35 AM 44.1 °F 40.1 °F 44.1 °F 100% 30.01 in 0.5 mi NE 6.9 mph - N/A Fog Fog
10:55 AM 43.7 °F 40.3 °F 43.7 °F 100% 30.02 in 1.2 mi NE 5.8 mph - N/A   Overcast
11:15 AM 43.2 °F 39.0 °F 43.2 °F 100% 30.02 in 1.5 mi NE 6.9 mph - N/A   Overcast
11:35 AM 43.0 °F 40.3 °F 43.0 °F 100% 30.02 in 1.0 mi ENE 4.6 mph - N/A   Overcast
11:55 AM 42.8 °F 40.1 °F 42.8 °F 100% 30.02 in 0.2 mi ENE 4.6 mph - N/A Fog Fog
12:15 PM 42.8 °F 39.3 °F 42.8 °F 100% 30.01 in 0.2 mi NE 5.8 mph - N/A Fog Fog
12:35 PM 42.6 °F 39.0 °F 42.6 °F 100% 30.01 in 0.2 mi ENE 5.8 mph - N/A Fog Fog
12:55 PM 42.4 °F 38.1 °F 42.4 °F 100% 30.00 in 0.2 mi ENE 6.9 mph - N/A Fog Fog
1:15 PM 42.6 °F 39.9 °F 42.6 °F 100% 30.00 in 1.0 mi NE 4.6 mph - N/A   Overcast
1:35 PM 43.0 °F 40.3 °F 43.0 °F 100% 29.99 in 1.5 mi NNE 4.6 mph - N/A   Overcast
1:55 PM 44.1 °F 40.1 °F 43.9 °F 99% 29.99 in 2.0 mi ENE 6.9 mph - N/A   Overcast
2:15 PM 43.9 °F 40.5 °F 43.5 °F 99% 29.98 in 2.5 mi NNE 5.8 mph - N/A   Overcast
2:35 PM 44.6 °F 40.7 °F 43.5 °F 96% 29.97 in 3.0 mi NNE 6.9 mph - N/A   Overcast
3:15 PM 45.3 °F 40.6 °F 43.9 °F 95% 29.96 in 4.0 mi NE 9.2 mph - N/A   Overcast
3:35 PM 44.8 °F 41.6 °F 43.5 °F 95% 29.95 in 4.0 mi NNE 5.8 mph - N/A   Overcast
3:55 PM 44.8 °F 41.6 °F 43.2 °F 94% 29.95 in 4.0 mi NE 5.8 mph - N/A   Overcast
4:15 PM 45.0 °F 40.1 °F 43.3 °F 94% 29.95 in 5.0 mi ENE 9.2 mph - N/A   Overcast
4:35 PM 44.8 °F 39.9 °F 43.2 °F 94% 29.94 in 5.0 mi ENE 9.2 mph - N/A   Overcast
4:55 PM 45.0 °F 43.5 °F 43.2 °F 93% 29.94 in 5.0 mi NNE 3.5 mph - N/A   Overcast
5:15 PM 45.5 °F 42.5 °F 43.5 °F 93% 29.94 in 5.0 mi East 5.8 mph - N/A   Overcast
5:35 PM 45.9 °F 42.9 °F 43.7 °F 92% 29.94 in 7.0 mi ENE 5.8 mph - N/A   Overcast
5:55 PM 45.7 °F 42.0 °F 43.7 °F 93% 29.94 in 7.0 mi NE 6.9 mph - N/A   Overcast
6:15 PM 46.0 °F 43.9 °F 43.9 °F 92% 29.94 in 7.0 mi NE 4.6 mph - N/A   Overcast
6:35 PM 45.5 °F 40.8 °F 43.3 °F 92% 29.94 in 7.0 mi ENE 9.2 mph - N/A   Overcast
6:55 PM 45.1 °F 40.8 °F 43.2 °F 93% 29.94 in 7.0 mi ENE 8.1 mph - N/A   Overcast
7:15 PM 45.0 °F 41.8 °F 43.2 °F 93% 29.95 in 7.0 mi NE 5.8 mph - N/A   Overcast
7:35 PM 44.8 °F 40.4 °F 43.0 °F 93% 29.95 in 10.0 mi ENE 8.1 mph - N/A   Overcast
7:55 PM 44.6 °F 41.4 °F 42.8 °F 93% 29.96 in 10.0 mi ENE 5.8 mph - N/A   Overcast
8:15 PM 44.6 °F 42.2 °F 42.8 °F 93% 29.96 in 10.0 mi East 4.6 mph - N/A   Overcast
8:35 PM 45.5 °F 40.3 °F 43.2 °F 92% 29.95 in 10.0 mi ESE 10.4 mph 16.1 mph N/A   Overcast
8:55 PM 45.5 °F 40.8 °F 42.8 °F 90% 29.95 in 10.0 mi ESE 9.2 mph - N/A   Overcast
9:15 PM 45.1 °F 39.9 °F 42.4 °F 90% 29.96 in 10.0 mi East 10.4 mph - N/A   Overcast
9:35 PM 44.8 °F 39.0 °F 42.1 °F 90% 29.96 in 10.0 mi ESE 11.5 mph 19.6 mph N/A   Overcast
9:55 PM 44.6 °F 38.8 °F 41.0 °F 87% 29.96 in 10.0 mi ESE 11.5 mph 23.0 mph N/A   Overcast
10:15 PM 44.1 °F 38.1 °F 40.5 °F 87% 29.97 in 10.0 mi SE 11.5 mph 20.7 mph N/A   Overcast
10:35 PM 43.7 °F 36.3 °F 39.9 °F 87% 29.97 in 10.0 mi SE 16.1 mph 25.3 mph N/A   Overcast
10:55 PM 43.3 °F 37.2 °F 39.9 °F 88% 29.96 in 10.0 mi SE 11.5 mph 21.9 mph N/A   Overcast
11:15 PM 42.8 °F 34.5 °F 39.2 °F 87% 29.96 in 10.0 mi ESE 18.4 mph 27.6 mph N/A   Overcast
11:35 PM 41.7 °F 34.4 °F 38.3 °F 88% 29.97 in 10.0 mi SE 13.8 mph 24.2 mph N/A   Overcast
11:55 PM 40.5 °F 32.1 °F 37.6 °F 89% 29.96 in 10.0 mi ESE 16.1 mph 25.3 mph N/A   Overcast